カタログに戻る

BREEZE-M DEB

LostHEO
NORAD 38628·DEBRIS·🇷🇺 Russia

打ち上げ Mar 14, 2008 から Baikonur Cosmodrome

Loading…

次のパス (今後24時間)

TLE

古いSource: Space-Track

元期: Mar 11, 2016, 09:24 UTC

1 38628U 08011CB  16071.39190343  .00001856  00000-0  52750-2 0  9995
2 38628  48.7897 173.5329 6533135 223.5434 141.3492  3.13123694 49055

AllMySatでBREEZE-M DEBをリアルタイム追跡

Download on the App Store